Location: The Saddle
(36.8333°N, 80.3417°W)
Time: 13:48:46
(UTC-05:00)

S-56A Canister/Altair - Pass Details

Date: 11 December 2023
Orbit: 639 x 2488 km, 38.9° (Epoch: 03 March)

Event Time Altitude Azimuth Distance (km) Brightness Sun altitude
Rises 08:58:50 0° 230° (SW) 4,390 11.3 14.5°
Reaches altitude 10° 09:02:22 10° 225° (SW) 3,116 10.7 15.0°
Maximum altitude 09:09:10 45° 155° (SSE) 1,207 9.7 15.9°
Drops below altitude 10° 09:14:04 10° 83° (E) 2,251 10.5 16.6°
Sets 09:16:15 0° 77° (ENE) 3,065 11.0 16.9°
